This is the latest recevied weather packets stored in our database for station/object WA1NHP. If no packets are shown the sender has not sent any weather packets the latest 10 day(s).
| Time | Temp. | Humidity | Pressure | Rain* | Wind** | Luminosity | Snow |
|---|---|---|---|---|---|---|---|
| 1777834444 | 10.56° C | 43% | 1023.9 hPa | 0 mm | - | 399 W/m² | - |
| 1777833844 | 11.11° C | 42% | 1023.9 hPa | 0 mm | - | 269 W/m² | - |
| 1777833244 | 10.56° C | 45% | 1023.9 hPa | 0 mm | - | 573 W/m² | - |
| 1777832644 | 9.44° C | 51% | 1023.9 hPa | 0 mm | - | 459 W/m² | - |
| 1777832043 | 8.89° C | 49% | 1023.9 hPa | 0 mm | - | 301 W/m² | - |
| 1777831444 | 8.89° C | 48% | 1023.9 hPa | 0 mm | - | 255 W/m² | - |
| 1777830844 | 8.33° C | 50% | 1023.9 hPa | 0 mm | - | 345 W/m² | - |
| 1777830243 | 8.33° C | 49% | 1023.9 hPa | 0 mm | - | 246 W/m² | - |
| 1777829643 | 8.33° C | 51% | 1023.9 hPa | 0 mm | - | 237 W/m² | - |
| 1777829044 | 8.33° C | 50% | 1023.9 hPa | 0 mm | - | 348 W/m² | - |
| 1777828444 | 8.89° C | 53% | 1023.9 hPa | 0 mm | - | 304 W/m² | - |
| 1777827844 | 8.89° C | 47% | 1023.9 hPa | 0 mm | - | 360 W/m² | - |
| 1777827244 | 9.44° C | 49% | 1023.9 hPa | 0 mm | - | 264 W/m² | - |
| 1777826644 | 9.44° C | 50% | 1023.9 hPa | 0 mm | - | 522 W/m² | - |
| 1777826044 | 8.33° C | 50% | 1023.9 hPa | 0 mm | - | 457 W/m² | - |
| 1777825444 | 7.78° C | 52% | 1023.9 hPa | 0 mm | - | 267 W/m² | - |
| 1777824844 | 8.33° C | 51% | 1023.9 hPa | 0 mm | - | 167 W/m² | - |
| 1777824243 | 8.89° C | 47% | 1023.9 hPa | 0 mm | - | 227 W/m² | - |
| 1777823644 | 8.89° C | 46% | 1023.9 hPa | 0 mm | - | 341 W/m² | - |
| 1777823044 | 8.33° C | 49% | 1023.9 hPa | 0 mm | - | 441 W/m² | - |
| 1777822444 | 8.33° C | 49% | 1023.9 hPa | 0 mm | - | 258 W/m² | - |
| 1777821844 | 7.78° C | 53% | 1023.9 hPa | 0 mm | - | 292 W/m² | - |
| 1777821245 | 7.78° C | 54% | 1023.9 hPa | 0 mm | - | 216 W/m² | - |
| 1777820644 | 8.33° C | 56% | 1023.9 hPa | 0 mm | - | 260 W/m² | - |
| 1777820044 | 8.89° C | 54% | 1023.9 hPa | 0 mm | - | 308 W/m² | - |
* Rain latest hour (hover to see other rain measurements)
** Current wind speed in m/s (hover to see current wind gust speed)